D3121 Weather Reports


Display with metric or nautical units.
time (UTC)temp
F
wind
direction
speed
MPH
gust
MPH
rain 1hr
in
rain 24hr
in
rain mn
in
humidity
%
barometer
mb
20260902014417 63 135 5.0 6.0 0.00 0.19 0.19 95 1019.4
20260902013417 63 158 6.0 7.0 0.00 0.19 0.19 95 1019.3
20260902012417 63 158 6.0 7.0 0.00 0.19 0.19 95 1019.3
20260902011417 63 158 4.0 6.0 0.00 0.19 0.19 95 1019.4
20260902010417 63 135 5.0 6.0 0.00 0.19 0.19 95 1019.3
20260902005417 63 158 6.0 7.0 0.00 0.19 0.19 95 1019.2
20260902004417 62 158 8.0 9.0 0.00 0.19 0.19 95 1019.0
20260902003437 63 158 5.0 7.0 0.00 0.19 0.19 95 1019.0
20260902002417 63 180 6.0 9.0 0.00 0.19 0.19 94 1018.9
20260902001417 63 158 8.0 10.0 0.00 0.19 0.19 95 1018.7
20260902000417 63 158 8.0 9.0 0.00 0.19 0.19 94 1018.6
20260901235417 63 158 8.0 9.0 0.00 0.19 0.19 94 1018.4
20260901234417 63 158 8.0 9.0 0.00 0.19 0.19 94 1018.4
20260901233417 64 158 6.0 7.0 0.00 0.19 0.19 94 1018.4
20260901232417 64 158 6.0 7.0 0.00 0.19 0.19 93 1018.6
20260901231437 64 158 5.0 6.0 0.00 0.19 0.19 93 1018.5
20260901230437 64 158 4.0 6.0 0.00 0.19 0.19 92 1018.4
20260901225417 64 158 5.0 6.0 0.00 0.19 0.19 92 1018.4
20260901224437 64 180 2.0 4.0 0.00 0.19 0.19 92 1018.5
20260901223417 64 158 5.0 6.0 0.00 0.19 0.19 92 1018.6
20260901222417 64 158 3.0 5.0 0.00 0.19 0.19 92 1018.7
20260901221437 64 180 5.0 8.0 0.00 0.19 0.19 91 1018.5
20260901220417 65 158 4.0 6.0 0.00 0.19 0.19 91 1018.5
20260901215417 65 180 5.0 6.0 0.00 0.19 0.19 92 1018.4
20260901214417 64 158 8.0 9.0 0.00 0.19 0.19 92 1018.3
20260901213417 65 180 6.0 8.0 0.00 0.19 0.19 92 1018.2
20260901212437 65 158 4.0 7.0 0.00 0.19 0.19 92 1018.1
20260901211417 65 158 7.0 9.0 0.00 0.19 0.19 92 1018.2
20260901210417 65 158 4.0 7.0 0.00 0.19 0.19 92 1018.2
20260901205417 65 158 5.0 7.0 0.00 0.19 0.19 92 1018.0
20260901204417 65 158 7.0 9.0 0.00 0.19 0.19 92 1018.0
20260901203417 65 158 8.0 10.0 0.00 0.19 0.19 91 1017.6
20260901202437 65 158 8.0 9.0 0.00 0.19 0.19 91 1017.6
20260901201417 65 135 7.0 8.0 0.00 0.19 0.19 91 1017.8
20260901200417 65 135 7.0 9.0 0.00 0.19 0.19 91 1017.8
20260901195437 65 113 6.0 9.0 0.00 0.19 0.19 91 1017.6
20260901194417 65 135 5.0 6.0 0.00 0.19 0.19 90 1017.6
20260901193417 64 158 6.0 7.0 0.00 0.19 0.19 91 1017.7
20260901192417 64 158 5.0 8.0 0.00 0.19 0.19 90 1017.7
20260901191417 64 158 6.0 7.0 0.00 0.19 0.19 90 1017.7
20260901190417 64 158 5.0 6.0 0.00 0.19 0.19 90 1017.9
20260901185417 64 135 4.0 6.0 0.00 0.19 0.19 90 1018.0
20260901184417 64 135 3.0 5.0 0.00 0.19 0.19 89 1018.0
20260901183417 64 158 5.0 6.0 0.00 0.19 0.19 89 1018.0
20260901182417 63 135 4.0 6.0 0.00 0.19 0.19 88 1017.8
20260901181417 63 158 3.0 5.0 0.00 0.19 0.19 88 1017.9
20260901180437 63 113 3.0 5.0 0.00 0.19 0.19 88 1017.8
20260901175417 63 158 3.0 5.0 0.00 0.19 0.19 88 1017.7
20260901174417 62 158 3.0 4.0 0.00 0.19 0.19 88 1017.7
20260901173416 62 158 5.0 7.0 0.00 0.19 0.19 88 1017.5
20260901172417 62 113 4.0 5.0 0.00 0.19 0.19 88 1017.5
20260901171417 62 113 5.0 6.0 0.00 0.19 0.19 88 1017.5
20260901170417 62 113 5.0 6.0 0.00 0.19 0.19 87 1017.5
20260901165437 62 113 3.0 5.0 0.00 0.19 0.19 89 1017.5
20260901164417 62 158 6.0 7.0 0.00 0.19 0.19 89 1017.4
20260901163417 61 135 7.0 8.0 0.00 0.19 0.19 90 1017.2
20260901162417 61 135 6.0 8.0 0.00 0.19 0.19 90 1017.4
20260901161417 61 135 5.0 6.0 0.00 0.19 0.19 91 1017.6
20260901160417 61 113 4.0 5.0 0.00 0.19 0.19 91 1017.7
20260901155416 60 90 4.0 6.0 0.00 0.19 0.19 92 1017.9
20260901154417 60 113 3.0 4.0 0.00 0.19 0.19 92 1018.0
20260901153437 60 90 2.0 3.0 0.00 0.19 0.19 92 1018.0
20260901152417 60 135 1.0 4.0 0.00 0.19 0.19 92 1018.0
20260901151417 60 0.0 0.0 0.00 0.19 0.19 91 1018.2
20260901150417 60 90 2.0 3.0 0.00 0.19 0.19 93 1017.8
20260901145417 60 113 3.0 5.0 0.00 0.19 0.19 92 1017.6
20260901144416 60 158 3.0 4.0 0.00 0.19 0.19 91 1017.5
20260901143437 60 135 8.0 10.0 0.01 0.19 0.19 91 1017.4
20260901142416 60 158 6.0 7.0 0.01 0.19 0.19 91 1017.6
20260901141417 60 158 6.0 8.0 0.01 0.19 0.19 91 1017.6
20260901140417 60 135 6.0 7.0 0.01 0.19 0.19 92 1017.4
20260901135417 60 135 6.0 8.0 0.02 0.19 0.19 93 1017.4
20260901134417 60 135 6.0 7.0 0.03 0.19 0.19 93 1017.5
20260901133437 60 113 3.0 5.0 0.03 0.18 0.18 93 1017.8
20260901132417 59 135 3.0 5.0 0.04 0.18 0.18 93 1017.6
20260901131417 59 68 2.0 5.0 0.07 0.18 0.18 92 1017.9
20260901130416 60 135 4.0 5.0 0.09 0.18 0.18 92 1017.8
20260901125417 60 135 6.0 8.0 0.09 0.17 0.17 92 1017.9
20260901124417 60 135 5.0 6.0 0.09 0.16 0.16 92 1018.0
20260901123417 60 113 4.0 5.0 0.09 0.15 0.15 93 1018.2
20260901122417 60 113 3.0 5.0 0.10 0.14 0.14 91 1018.3
20260901121417 60 113 4.0 9.0 0.08 0.11 0.11 92 1018.4
20260901120437 60 135 5.0 6.0 0.08 0.09 0.09 92 1018.4
20260901115437 60 45 3.0 4.0 0.08 0.08 0.08 90 1018.4
20260901114416 61 23 2.0 3.0 0.07 0.07 0.07 90 1018.4
20260901113416 61 0.0 0.0 0.06 0.06 0.06 89 1018.5
20260901112417 61 23 2.0 3.0 0.04 0.04 0.04 89 1018.4
20260901111416 62 0.0 0.0 0.03 0.03 0.03 88 1018.3
20260901110437 63 0.0 1.0 0.01 0.01 0.01 84 1018.1
20260901105417 63 90 2.0 2.0 0.00 0.00 0.00 82 1017.9
20260901104417 64 23 1.0 2.0 0.00 0.00 0.00 82 1018.0
20260901103416 64 113 1.0 2.0 0.00 0.00 0.00 82 1017.7
20260901102417 64 113 3.0 5.0 0.00 0.00 0.00 82 1017.5
20260901101417 64 0.0 0.0 0.00 0.00 0.00 82 1017.5
20260901100416 64 68 1.0 2.0 0.00 0.00 0.00 82 1017.5
20260901095417 64 45 1.0 2.0 0.00 0.00 0.00 85 1017.6
20260901094437 64 90 2.0 3.0 0.00 0.00 0.00 84 1017.4
20260901093437 64 45 2.0 2.0 0.00 0.00 0.00 86 1017.3
20260901092416 64 0.0 0.0 0.00 0.00 0.00 86 1017.4
20260901091416 64 0.0 1.0 0.00 0.00 0.00 85 1017.4
20260901090416 64 135 2.0 4.0 0.00 0.00 0.00 86 1017.5
20260901085416 64 0.0 0.0 0.00 0.00 0.00 88 1017.6
20260901084416 64 45 1.0 2.0 0.00 0.00 0.00 91 1017.4
20260901083416 64 0.0 0.0 0.00 0.00 0.00 92 1017.5
20260901082416 64 0.0 0.0 0.00 0.00 0.00 92 1017.7
20260901081416 64 0.0 0.0 0.00 0.00 0.00 92 1017.7
20260901080417 64 0.0 0.0 0.00 0.00 0.00 91 1017.7
20260901075416 64 0.0 0.0 0.00 0.00 0.00 92 1017.8
20260901074417 63 0.0 0.0 0.00 0.00 0.00 93 1017.7
20260901073416 63 0.0 0.0 0.00 0.00 0.00 92 1017.7
20260901072437 63 0.0 0.0 0.00 0.00 0.00 92 1017.7
20260901071416 63 0.0 0.0 0.00 0.00 0.00 92 1017.8
20260901070416 63 0.0 0.0 0.00 0.00 0.00 92 1017.8
20260901065416 63 0.0 0.0 0.00 0.00 0.00 92 1018.0
20260901064416 63 0 1.0 1.0 0.00 0.00 0.00 93 1018.0
20260901063416 62 0.0 0.0 0.00 0.00 0.00 93 1017.9
20260901062417 62 0.0 0.0 0.00 0.00 0.00 93 1018.2
20260901061416 62 0.0 0.0 0.00 0.00 0.00 93 1018.2
20260901060416 62 0.0 0.0 0.00 0.00 0.00 92 1018.2
20260901055416 62 0.0 0.0 0.00 0.00 0.00 93 1018.3
20260901054416 62 0.0 0.0 0.00 0.00 0.00 92 1018.2
20260901053416 62 0.0 0.0 0.00 0.00 0.00 92 1018.2
20260901052416 62 0.0 0.0 0.00 0.00 0.00 92 1018.3
20260901051416 62 0.0 0.0 0.00 0.00 0.00 92 1018.4
20260901050417 62 0.0 0.0 0.00 0.00 0.00 91 1018.3
20260901045416 62 0.0 0.0 0.00 0.00 0.00 91 1018.3
20260901044416 62 0.0 0.0 0.00 0.00 0.00 91 1018.2
20260901043457 62 0.0 0.0 0.00 0.00 0.00 90 1018.2
20260901042416 63 0.0 0.0 0.00 0.00 0.00 90 1018.0
20260901041436 63 0.0 0.0 0.00 0.00 0.00 91 1018.1
20260901040416 63 0.0 0.0 0.00 0.00 0.00 91 1018.2
20260901035417 63 0.0 0.0 0.00 0.00 0.00 91 1018.0
20260901034418 62 0.0 0.0 0.00 0.00 0.00 90 1018.1
20260901033417 62 0.0 0.0 0.00 0.00 0.00 90 1018.2
20260901032417 62 0.0 0.0 0.00 0.00 0.00 89 1018.2
20260901031417 62 0.0 0.0 0.00 0.00 0.00 89 1018.1
20260901030417 62 0.0 0.0 0.00 0.00 0.00 89 1017.8
20260901025437 62 0.0 0.0 0.00 0.00 0.00 89 1018.0
20260901024417 62 0.0 0.0 0.00 0.00 0.00 88 1018.1
20260901023418 62 0.0 0.0 0.00 0.00 0.00 87 1018.2
20260901022415 62 0.0 0.0 0.00 0.00 0.00 86 1018.2
20260901021417 62 0.0 0.0 0.00 0.00 0.00 85 1018.1
20260901020417 62 0.0 0.0 0.00 0.00 0.00 84 1018.1
20260901015417 63 0.0 0.0 0.00 0.00 0.00 83 1018.0